Weather Roundup
Issued by NWS

Home | Current Version | Previous Version | Graphics & Text | Print | Product List | Glossary Off
Versions: 1 2 3 4 5 6 7 8 9 10 11 12 13 14 15 16 17 18 19 20 21 22 23 24 25 26 27 28 29 30 31 32 33 34 35 36 37 38 39 40 41 42 43 44 45 46 47 48 49 50

000
NZUS93 KARX 260910
HRRWXR

CURRENT HOURLY OBSERVATIONS ACROSS
MUCH OF THE UPPER MISSISSIPPI VALLEY
NATIONAL WEATHER SERVICE LA CROSSE WI
400 AM CDT FRI MAY 26 2017


...SOUTHEAST MINNESOTA...


CITY           SKY/WX    TMP DP  RH WIND       PRES   REMARKS
ROCHESTER      CLEAR     55  53  93 SE7       29.74F
ROCHESTER/MAYO FAIR      58  54  86 SE8       29.73F
WINONA         CLOUDY    57  55  94 CALM      29.76S
AUSTIN         CLOUDY    57  50  77 CALM      29.72S
ALBERT LEA     CLOUDY    59  54  82 S5        29.71S
DODGE CENTER   CLEAR     54  50  87 SE3       29.73S
PRESTON        CLOUDY    57  52  84 SE8       29.75F
OWATONNA       CLOUDY    57  50  77 SE8       29.71S
FARIBAULT      PTCLDY    55  52  88 SE3       29.71S
$$

...ELSEWHERE IN MINNESOTA...


CITY           SKY/WX    TMP DP  RH WIND       PRES   REMARKS
MINNEAPOLIS    CLOUDY    61  52  72 S9        29.70S
INTNL FALLS    CLOUDY    54  50  86 SE9       29.66F
DULUTH         LGT RAIN  49  47  93 E5        29.74S
RED WING       CLOUDY    61  52  72 SE6       29.72S
REDWOOD FALLS  CLOUDY    57  51  80 S3        29.66S
MANKATO        CLOUDY    59  51  75 S9        29.69S
WORTHINGTON    PTCLDY    58  52  80 S9        29.68S
FAIRMONT       CLOUDY    58  52  80 S7        29.69S
$$

...SOUTHWEST WISCONSIN...


CITY           SKY/WX    TMP DP  RH WIND       PRES   REMARKS
LA CROSSE      CLOUDY    59  57  93 SE6       29.77R
PRAIRIE DU CHI CLOUDY    55  52  89 SE5       29.78S FOG
BOSCOBEL       FOG       54  53  97 CALM      29.80S VSB 1/4
LONE ROCK      PTCLDY    56  54  93 CALM      29.81R FOG
PLATTEVILLE    CLEAR     57  55  94 SE3       29.81S
FORT MC COY    CLOUDY    55  55 100 CALM      29.79S
CAMP DOUGLAS   PTCLDY    55  55 100 E5        29.79S
MAUSTON-NEW LI CLOUDY    57  57  99 CALM      29.80R FOG
VIROQUA        PTSUNNY   57  54  89 N6        29.79S
WIS DELLS      CLOUDY    56  53  91 CALM      29.80R
$$

...ELSEWHERE IN WISCONSIN...


CITY           SKY/WX    TMP DP  RH WIND       PRES   REMARKS
MILWAUKEE      CLOUDY    52  50  93 CALM      29.82R
MADISON        CLOUDY    56  55  97 CALM      29.81R
GREEN BAY      CLEAR     49  49 100 CALM      29.82R
EAU CLAIRE     CLOUDY    59  54  83 SE8       29.76R
BLACK RVR FLS  CLOUDY    56  56 100 CALM      29.78R FOG
MEDFORD        CLOUDY    56  52  87 S5        29.80R
WAUSAU         CLOUDY    56  52  86 SE6       29.79S
WIS RAPIDS     CLOUDY    56  51  84 SW3       29.82R
MARSHFIELD     LGT RAIN  56  53  90 W5        29.80R
RICE LAKE      CLOUDY    58  55  88 E3        29.77R
$$

...NORTHEAST IOWA...


CITY           SKY/WX    TMP DP  RH WIND       PRES   REMARKS
WATERLOO       PTCLDY    56  51  84 SE6       29.73F
DUBUQUE        CLEAR     55  52  89 S3        29.80R
DECORAH        NOT AVBL
MASON CITY     PTCLDY    55  49  80 S8        29.73S
CHARLES CITY   CLEAR     57  54  88 SE10      29.74S
OELWEIN        CLOUDY    55  55 100 SE8       29.76S
$$

...ELSEWHERE IN IOWA...


CITY           SKY/WX    TMP DP  RH WIND       PRES   REMARKS
DES MOINES     CLOUDY    62  53  72 E7        29.69S
IOWA CITY      MOCLDY    60  53  77 CALM      29.77S
FORT DODGE     CLOUDY    57  50  77 SE6       29.70F
MARSHALLTOWN   CLOUDY    56  52  86 E8        29.71S
CEDAR RAPIDS   PTCLDY    55  54  96 E8        29.75S
$$

...NORTHERN ILLINOIS...


CITY           SKY/WX    TMP DP  RH WIND       PRES   REMARKS
CHICAGO-OHARE  CLOUDY    53  49  86 CALM      29.81R
CHICAGO-MIDWAY PTCLDY    54  50  86 CALM      29.82R
MOLINE         PTCLDY    58  53  84 E5        29.78R
ROCKFORD       CLOUDY    56  53  90 CALM      29.82R
PEORIA         PTCLDY    58  55  90 E3        29.81R
$$

NOTE: "FAIR" INDICATES FEW OR NO CLOUDS BELOW 12,000 FEET WITH NO
SIGNIFICANT WEATHER AND/OR OBSTRUCTIONS TO VISIBILITY. WIND
SPEEDS ARE IN MILES-PER-HOUR.




USA.gov is the U.S. government's official web portal to all federal, state and local government web resources and services.